Time,TemperatureF,DewpointF,PressureIn,WindDirection,WindDirectionDegrees,WindSpeedMPH,WindSpeedGustMPH,Humidity,HourlyPrecipIn,Conditions,Clouds,dailyrainin,SoftwareType,DateUTC
2013-04-21 00:01:00,32.6,14.9,29.77,ESE,113,0.0,0.0,48,0.05,,,0.00,WUHU216HW,2013-04-21 06:01:00,
2013-04-21 00:06:00,32.6,14.0,29.77,ESE,113,0.0,0.0,46,0.05,,,0.02,WUHU216HW,2013-04-21 06:06:00,
2013-04-21 00:11:00,32.8,11.1,29.77,South,180,0.4,3.6,40,0.04,,,0.02,WUHU216HW,2013-04-21 06:11:00,
2013-04-21 00:16:00,32.6,12.4,29.77,SSW,203,0.0,3.6,43,0.05,,,0.02,WUHU216HW,2013-04-21 06:16:00,
2013-04-21 00:21:00,32.6,12.0,29.76,North,0,0.0,1.3,42,0.05,,,0.02,WUHU216HW,2013-04-21 06:21:00,
2013-04-21 00:26:00,32.8,11.6,29.76,WNW,293,0.0,1.3,41,0.05,,,0.04,WUHU216HW,2013-04-21 06:26:00,
2013-04-21 00:31:00,32.8,12.1,29.76,SSW,203,0.0,0.7,42,0.05,,,0.04,WUHU216HW,2013-04-21 06:31:00,
2013-04-21 00:36:00,32.8,9.8,29.77,NE,45,0.4,0.9,38,0.05,,,0.05,WUHU216HW,2013-04-21 06:36:00,
2013-04-21 00:41:00,33.1,10.2,29.76,SSE,158,0.0,0.9,38,0.05,,,0.05,WUHU216HW,2013-04-21 06:41:00,
2013-04-21 00:46:00,33.1,10.8,29.76,SSE,158,0.0,0.4,39,0.05,,,0.06,WUHU216HW,2013-04-21 06:46:00,
2013-04-21 00:51:00,32.9,11.8,29.76,SW,225,0.0,0.2,41,0.05,,,0.06,WUHU216HW,2013-04-21 06:51:00,
2013-04-21 00:56:00,32.8,11.6,29.77,SW,225,0.0,0.2,41,0.05,,,0.06,WUHU216HW,2013-04-21 06:56:00,
2013-04-21 01:01:00,32.8,12.1,29.77,SW,225,0.0,0.0,42,0.04,,,0.06,WUHU216HW,2013-04-21 07:01:00,
2013-04-21 01:06:00,32.9,10.0,29.77,North,0,0.4,1.1,38,0.04,,,0.06,WUHU216HW,2013-04-21 07:06:00,
2013-04-21 01:11:00,32.9,10.6,29.78,ESE,113,0.7,1.6,39,0.04,,,0.06,WUHU216HW,2013-04-21 07:11:00,
2013-04-21 01:16:00,32.9,9.4,29.78,NNE,23,1.8,3.4,37,0.04,,,0.07,WUHU216HW,2013-04-21 07:16:00,
2013-04-21 01:21:00,32.9,10.0,29.79,ENE,68,0.0,3.4,38,0.03,,,0.07,WUHU216HW,2013-04-21 07:21:00,
2013-04-21 01:26:00,32.9,10.0,29.79,NNE,23,0.0,0.9,38,0.03,,,0.07,WUHU216HW,2013-04-21 07:26:00,
2013-04-21 01:31:00,32.6,10.3,29.80,SE,135,0.2,1.1,39,0.03,,,0.07,WUHU216HW,2013-04-21 07:31:00,
2013-04-21 01:36:00,32.2,10.6,29.80,SSW,203,0.0,1.1,40,0.02,,,0.07,WUHU216HW,2013-04-21 07:36:00,
2013-04-21 01:41:00,31.9,10.8,29.80,NNE,23,0.4,1.1,41,0.01,,,0.07,WUHU216HW,2013-04-21 07:41:00,
2013-04-21 01:46:00,31.5,10.4,29.81,NNE,23,0.7,1.1,41,0.01,,,0.07,WUHU216HW,2013-04-21 07:46:00,
2013-04-21 01:51:00,31.3,10.8,29.81,NNE,23,0.0,1.1,42,0.01,,,0.07,WUHU216HW,2013-04-21 07:51:00,
2013-04-21 01:56:00,31.1,11.2,29.81,NNE,23,0.4,0.9,43,0.01,,,0.07,WUHU216HW,2013-04-21 07:56:00,
2013-04-21 02:01:00,31.0,11.0,29.81,NNE,23,0.0,0.7,43,0.01,,,0.07,WUHU216HW,2013-04-21 08:01:00,
2013-04-21 02:06:00,30.8,11.4,29.81,NNE,23,0.4,0.4,44,0.01,,,0.07,WUHU216HW,2013-04-21 08:06:00,
2013-04-21 02:11:00,30.8,11.4,29.81,NNE,23,1.1,1.1,44,0.01,,,0.07,WUHU216HW,2013-04-21 08:11:00,
2013-04-21 02:16:00,30.6,11.2,29.81,NNE,23,0.0,1.1,44,0.00,,,0.07,WUHU216HW,2013-04-21 08:16:00,
2013-04-21 02:21:00,30.2,11.9,29.81,NNE,23,0.0,1.3,46,0.00,,,0.07,WUHU216HW,2013-04-21 08:21:00,
2013-04-21 02:26:00,30.1,12.2,29.82,NNE,23,0.2,1.3,47,0.00,,,0.07,WUHU216HW,2013-04-21 08:26:00,
2013-04-21 02:31:00,29.9,11.5,29.82,NNE,23,0.2,0.7,46,0.00,,,0.07,WUHU216HW,2013-04-21 08:31:00,
2013-04-21 02:36:00,29.9,11.5,29.82,NNE,23,0.0,0.7,46,0.00,,,0.07,WUHU216HW,2013-04-21 08:36:00,
2013-04-21 02:41:00,29.5,11.2,29.82,NNE,23,0.9,0.9,46,0.00,,,0.07,WUHU216HW,2013-04-21 08:41:00,
2013-04-21 02:46:00,29.5,11.2,29.82,NNE,23,0.0,0.9,46,0.00,,,0.07,WUHU216HW,2013-04-21 08:46:00,
2013-04-21 02:51:00,29.2,10.9,29.82,NNE,23,0.0,0.4,46,0.01,,,0.08,WUHU216HW,2013-04-21 08:51:00,
2013-04-21 02:56:00,29.2,11.3,29.82,NNE,23,0.4,0.7,47,0.01,,,0.08,WUHU216HW,2013-04-21 08:56:00,
2013-04-21 03:01:00,28.8,11.5,29.82,NNE,23,0.0,0.9,48,0.01,,,0.08,WUHU216HW,2013-04-21 09:01:00,
2013-04-21 03:06:00,28.6,11.4,29.83,NNE,23,0.0,0.9,48,0.01,,,0.08,WUHU216HW,2013-04-21 09:06:00,
2013-04-21 03:11:00,28.4,11.3,29.83,NNE,23,0.0,0.4,48,0.01,,,0.08,WUHU216HW,2013-04-21 09:11:00,
2013-04-21 03:16:00,28.4,11.3,29.83,NNE,23,0.0,0.4,48,0.01,,,0.08,WUHU216HW,2013-04-21 09:16:00,
2013-04-21 03:21:00,28.4,11.3,29.83,NNE,23,0.0,0.7,48,0.01,,,0.08,WUHU216HW,2013-04-21 09:21:00,
2013-04-21 03:26:00,28.3,11.5,29.83,NNE,23,0.9,0.9,49,0.01,,,0.08,WUHU216HW,2013-04-21 09:26:00,
2013-04-21 03:31:00,28.1,10.9,29.83,NNE,23,1.1,1.1,48,0.01,,,0.08,WUHU216HW,2013-04-21 09:31:00,
2013-04-21 03:36:00,27.9,10.7,29.83,NNE,23,0.0,1.1,48,0.01,,,0.08,WUHU216HW,2013-04-21 09:36:00,
2013-04-21 03:41:00,27.9,10.7,29.83,NNE,23,0.0,0.9,48,0.01,,,0.08,WUHU216HW,2013-04-21 09:41:00,
2013-04-21 03:46:00,27.9,10.7,29.83,NNE,23,0.2,1.3,48,0.01,,,0.08,WUHU216HW,2013-04-21 09:46:00,
2013-04-21 03:51:00,27.7,10.5,29.84,NNE,23,0.0,1.3,48,0.00,,,0.08,WUHU216HW,2013-04-21 09:51:00,
2013-04-21 03:56:00,27.7,10.5,29.83,NNE,23,0.4,0.4,48,0.00,,,0.08,WUHU216HW,2013-04-21 09:56:00,
2013-04-21 04:01:00,27.5,10.9,29.84,NNE,23,0.0,1.1,49,0.00,,,0.08,WUHU216HW,2013-04-21 10:01:00,
2013-04-21 04:06:00,27.5,10.4,29.84,NNE,23,0.2,1.1,48,0.00,,,0.08,WUHU216HW,2013-04-21 10:06:00,
2013-04-21 04:11:00,27.4,10.2,29.84,NNE,23,0.0,1.1,48,0.00,,,0.08,WUHU216HW,2013-04-21 10:11:00,
2013-04-21 04:16:00,27.4,10.7,29.84,NNE,23,0.0,0.0,49,0.00,,,0.08,WUHU216HW,2013-04-21 10:16:00,
2013-04-21 04:21:00,27.4,10.7,29.84,NNE,23,0.0,0.0,49,0.00,,,0.08,WUHU216HW,2013-04-21 10:21:00,
2013-04-21 04:26:00,27.0,10.8,29.84,NNE,23,0.0,0.7,50,0.00,,,0.08,WUHU216HW,2013-04-21 10:26:00,
2013-04-21 04:31:00,27.0,10.8,29.84,NNE,23,0.2,0.9,50,0.00,,,0.08,WUHU216HW,2013-04-21 10:31:00,
2013-04-21 04:36:00,27.0,9.8,29.84,NNE,23,1.1,1.1,48,0.00,,,0.08,WUHU216HW,2013-04-21 10:36:00,
2013-04-21 04:41:00,27.0,10.4,29.84,NNE,23,0.4,1.1,49,0.00,,,0.08,WUHU216HW,2013-04-21 10:41:00,
2013-04-21 04:46:00,26.8,10.2,29.84,NNE,23,2.0,2.0,49,0.00,,,0.08,WUHU216HW,2013-04-21 10:46:00,
2013-04-21 04:51:00,26.8,10.2,29.84,NNE,23,0.2,2.0,49,0.00,,,0.08,WUHU216HW,2013-04-21 10:51:00,
2013-04-21 04:56:00,26.6,10.0,29.84,NNE,23,1.8,1.8,49,0.00,,,0.08,WUHU216HW,2013-04-21 10:56:00,
2013-04-21 05:01:00,26.6,9.5,29.84,NNE,23,0.7,1.8,48,0.00,,,0.08,WUHU216HW,2013-04-21 11:01:00,
2013-04-21 05:06:00,26.6,10.0,29.84,NNE,23,0.2,1.6,49,0.00,,,0.08,WUHU216HW,2013-04-21 11:06:00,
2013-04-21 05:11:00,26.6,10.4,29.84,NNE,23,0.9,1.6,50,0.00,,,0.08,WUHU216HW,2013-04-21 11:11:00,
2013-04-21 05:16:00,26.5,10.3,29.84,NNE,23,0.4,1.3,50,0.00,,,0.08,WUHU216HW,2013-04-21 11:16:00,
2013-04-21 05:21:00,26.5,10.3,29.84,NNE,23,0.0,1.1,50,0.00,,,0.08,WUHU216HW,2013-04-21 11:21:00,
2013-04-21 05:26:00,26.3,10.1,29.84,NNE,23,0.0,1.1,50,0.00,,,0.08,WUHU216HW,2013-04-21 11:26:00,
2013-04-21 05:31:00,26.3,10.1,29.84,NNE,23,0.2,1.1,50,0.00,,,0.08,WUHU216HW,2013-04-21 11:31:00,
2013-04-21 05:36:00,26.3,10.1,29.84,NNE,23,0.2,0.7,50,0.00,,,0.08,WUHU216HW,2013-04-21 11:36:00,
2013-04-21 05:41:00,26.3,10.1,29.84,NNE,23,0.0,0.7,50,0.00,,,0.08,WUHU216HW,2013-04-21 11:41:00,
2013-04-21 05:46:00,26.1,10.0,29.84,NNE,23,0.7,0.7,50,0.00,,,0.08,WUHU216HW,2013-04-21 11:46:00,
2013-04-21 05:51:00,25.9,10.2,29.84,NNE,23,0.0,1.8,51,0.00,,,0.08,WUHU216HW,2013-04-21 11:51:00,
2013-04-21 05:56:00,25.9,9.3,29.84,NNE,23,0.4,1.8,49,0.00,,,0.08,WUHU216HW,2013-04-21 11:56:00,
2013-04-21 06:01:00,25.7,10.1,29.84,NNE,23,0.0,1.1,51,0.00,,,0.08,WUHU216HW,2013-04-21 12:01:00,
2013-04-21 06:06:00,25.6,10.3,29.84,NNE,23,0.0,1.1,52,0.00,,,0.08,WUHU216HW,2013-04-21 12:06:00,
2013-04-21 06:11:00,25.6,10.3,29.84,NNE,23,0.0,0.4,52,0.00,,,0.08,WUHU216HW,2013-04-21 12:11:00,
2013-04-21 06:16:00,25.6,10.3,29.84,NNE,23,0.0,0.4,52,0.00,,,0.08,WUHU216HW,2013-04-21 12:16:00,
2013-04-21 06:21:00,25.6,10.7,29.84,NNE,23,0.0,2.2,53,0.00,,,0.08,WUHU216HW,2013-04-21 12:21:00,
2013-04-21 06:26:00,25.4,11.3,29.84,NNE,23,0.9,2.2,55,0.00,,,0.08,WUHU216HW,2013-04-21 12:26:00,
2013-04-21 06:31:00,25.2,10.8,29.85,NNE,23,0.0,1.1,54,0.00,,,0.08,WUHU216HW,2013-04-21 12:31:00,
2013-04-21 06:36:00,25.2,10.4,29.85,NNE,23,0.2,0.4,53,0.00,,,0.08,WUHU216HW,2013-04-21 12:36:00,
2013-04-21 06:41:00,25.2,10.4,29.85,NNE,23,0.0,0.4,53,0.00,,,0.08,WUHU216HW,2013-04-21 12:41:00,
2013-04-21 06:46:00,25.0,10.3,29.84,NNE,23,0.0,1.6,53,0.00,,,0.08,WUHU216HW,2013-04-21 12:46:00,
2013-04-21 06:51:00,25.2,10.0,29.85,NNE,23,0.0,1.6,52,0.00,,,0.08,WUHU216HW,2013-04-21 12:51:00,
2013-04-21 06:56:00,25.0,10.6,29.85,NNE,23,0.0,0.2,54,0.00,,,0.08,WUHU216HW,2013-04-21 12:56:00,
2013-04-21 07:01:00,24.8,10.4,29.85,NNE,23,1.8,1.8,54,0.00,,,0.08,WUHU216HW,2013-04-21 13:01:00,
2013-04-21 07:06:00,24.8,10.4,29.85,NNE,23,0.4,1.8,54,0.00,,,0.08,WUHU216HW,2013-04-21 13:06:00,
2013-04-21 07:11:00,24.8,10.9,29.85,NNE,23,0.0,1.1,55,0.00,,,0.08,WUHU216HW,2013-04-21 13:11:00,
2013-04-21 07:16:00,24.7,10.7,29.85,NNE,23,0.0,1.1,55,0.00,,,0.08,WUHU216HW,2013-04-21 13:16:00,
2013-04-21 07:21:00,24.5,11.0,29.85,NNE,23,0.4,1.3,56,0.00,,,0.08,WUHU216HW,2013-04-21 13:21:00,
2013-04-21 07:26:00,24.5,10.2,29.86,NNE,23,0.9,1.3,54,0.00,,,0.08,WUHU216HW,2013-04-21 13:26:00,
2013-04-21 07:31:00,24.5,10.2,29.85,NNE,23,1.3,1.3,54,0.00,,,0.08,WUHU216HW,2013-04-21 13:31:00,
2013-04-21 07:36:00,24.5,10.5,29.86,NNE,23,0.0,1.3,55,0.00,,,0.08,WUHU216HW,2013-04-21 13:36:00,
2013-04-21 07:42:00,24.5,10.5,29.86,NNE,23,0.0,0.7,55,0.00,,,0.08,WUHU216HW,2013-04-21 13:42:00,
2013-04-21 07:47:00,24.5,10.5,29.86,NNE,23,0.0,0.7,55,0.00,,,0.08,WUHU216HW,2013-04-21 13:47:00,
2013-04-21 07:52:00,24.5,10.2,29.86,NNE,23,0.7,1.3,54,0.00,,,0.08,WUHU216HW,2013-04-21 13:52:00,
2013-04-21 07:57:00,24.5,10.5,29.86,NNE,23,0.4,1.3,55,0.00,,,0.08,WUHU216HW,2013-04-21 13:57:00,
2013-04-21 08:02:00,24.5,11.0,29.86,NNE,23,0.7,1.1,56,0.00,,,0.08,WUHU216HW,2013-04-21 14:02:00,
2013-04-21 08:07:00,24.5,11.0,29.86,NNE,23,0.2,3.1,56,0.00,,,0.08,WUHU216HW,2013-04-21 14:07:00,
2013-04-21 08:12:00,24.7,10.7,29.86,NNE,23,0.4,3.1,55,0.00,,,0.08,WUHU216HW,2013-04-21 14:12:00,
2013-04-21 08:17:00,24.7,11.2,29.86,NNE,23,0.0,2.7,56,0.00,,,0.08,WUHU216HW,2013-04-21 14:17:00,
2013-04-21 08:22:00,24.7,10.7,29.86,NNE,23,0.0,1.8,55,0.00,,,0.08,WUHU216HW,2013-04-21 14:22:00,
2013-04-21 08:27:00,24.7,11.2,29.86,NNE,23,0.0,1.8,56,0.00,,,0.08,WUHU216HW,2013-04-21 14:27:00,
2013-04-21 08:32:00,24.7,11.5,29.86,NNE,23,1.1,1.8,57,0.00,,,0.08,WUHU216HW,2013-04-21 14:32:00,
2013-04-21 08:37:00,24.5,11.8,29.87,NNE,23,0.0,3.1,58,0.00,,,0.08,WUHU216HW,2013-04-21 14:37:00,
2013-04-21 08:42:00,24.7,12.0,29.87,NNE,23,0.7,3.1,58,0.00,,,0.08,WUHU216HW,2013-04-21 14:42:00,
2013-04-21 08:47:00,24.7,11.5,29.87,NNE,23,1.6,1.6,57,0.00,,,0.08,WUHU216HW,2013-04-21 14:47:00,
2013-04-21 08:52:00,24.7,12.0,29.87,NNE,23,0.0,1.6,58,0.00,,,0.08,WUHU216HW,2013-04-21 14:52:00,
2013-04-21 08:57:00,24.5,11.3,29.87,NNE,23,0.2,1.6,57,0.00,,,0.08,WUHU216HW,2013-04-21 14:57:00,
2013-04-21 09:02:00,24.5,12.2,29.87,NNE,23,1.6,2.2,59,0.00,,,0.08,WUHU216HW,2013-04-21 15:02:00,
2013-04-21 09:07:00,24.5,11.8,29.87,NNE,23,0.4,2.2,58,0.00,,,0.08,WUHU216HW,2013-04-21 15:07:00,
2013-04-21 09:12:00,24.5,12.2,29.87,NNE,23,0.9,1.1,59,0.00,,,0.08,WUHU216HW,2013-04-21 15:12:00,
2013-04-21 09:17:00,24.7,12.3,29.87,NNE,23,0.0,1.3,59,0.00,,,0.08,WUHU216HW,2013-04-21 15:17:00,
2013-04-21 09:22:00,24.5,12.2,29.87,NNE,23,1.8,2.2,59,0.00,,,0.08,WUHU216HW,2013-04-21 15:22:00,
2013-04-21 09:27:00,24.3,12.8,29.87,NNE,23,0.4,3.8,61,0.00,,,0.08,WUHU216HW,2013-04-21 15:27:00,
2013-04-21 09:32:00,24.5,12.2,29.87,NNE,23,0.9,3.8,59,0.00,,,0.08,WUHU216HW,2013-04-21 15:32:00,
2013-04-21 09:37:00,24.8,12.5,29.87,NNE,23,0.2,0.9,59,0.00,,,0.08,WUHU216HW,2013-04-21 15:37:00,
2013-04-21 09:42:00,24.8,13.3,29.87,NNE,23,0.2,1.1,61,0.00,,,0.08,WUHU216HW,2013-04-21 15:42:00,
2013-04-21 09:47:00,24.8,13.7,29.87,NNE,23,0.4,1.1,62,0.00,,,0.08,WUHU216HW,2013-04-21 15:47:00,
2013-04-21 09:52:00,24.7,13.2,29.87,NNE,23,0.4,2.9,61,0.00,,,0.08,WUHU216HW,2013-04-21 15:52:00,
2013-04-21 09:57:00,24.7,13.5,29.87,NNE,23,1.1,3.8,62,0.00,,,0.08,WUHU216HW,2013-04-21 15:57:00,
2013-04-21 10:02:00,24.8,14.0,29.87,NNE,23,1.1,3.8,63,0.00,,,0.08,WUHU216HW,2013-04-21 16:02:00,
2013-04-21 10:07:00,24.8,13.7,29.87,NNE,23,0.4,1.6,62,0.00,,,0.08,WUHU216HW,2013-04-21 16:07:00,
2013-04-21 10:12:00,25.0,14.1,29.87,NNE,23,0.0,1.1,63,0.00,,,0.08,WUHU216HW,2013-04-21 16:12:00,
2013-04-21 10:17:00,25.0,14.9,29.87,NNE,23,0.0,1.6,65,0.00,,,0.08,WUHU216HW,2013-04-21 16:17:00,
2013-04-21 10:22:00,24.8,15.0,29.87,NNE,23,0.7,1.6,66,0.00,,,0.08,WUHU216HW,2013-04-21 16:22:00,
2013-04-21 10:27:00,24.8,14.7,29.87,NNE,23,0.7,2.9,65,0.00,,,0.08,WUHU216HW,2013-04-21 16:27:00,
2013-04-21 10:32:00,25.2,15.4,29.87,NNE,23,1.8,2.9,66,0.00,,,0.08,WUHU216HW,2013-04-21 16:32:00,
2013-04-21 10:37:00,25.2,15.7,29.87,NNE,23,0.2,1.8,67,0.00,,,0.08,WUHU216HW,2013-04-21 16:37:00,
2013-04-21 10:42:00,25.0,15.6,29.87,NNE,23,0.7,1.6,67,0.00,,,0.08,WUHU216HW,2013-04-21 16:42:00,
2013-04-21 10:47:00,25.0,14.9,29.87,NNE,23,0.2,1.1,65,0.00,,,0.08,WUHU216HW,2013-04-21 16:47:00,
2013-04-21 10:52:00,25.4,15.6,29.87,NNE,23,0.2,2.7,66,0.00,,,0.08,WUHU216HW,2013-04-21 16:52:00,
2013-04-21 10:57:00,25.2,15.4,29.87,NNE,23,0.0,2.7,66,0.00,,,0.08,WUHU216HW,2013-04-21 16:57:00,
2013-04-21 11:02:00,25.7,15.8,29.87,NNE,23,0.7,1.1,66,0.00,,,0.08,WUHU216HW,2013-04-21 17:02:00,
2013-04-21 11:07:00,25.9,16.7,29.87,NNE,23,0.4,1.8,68,0.00,,,0.08,WUHU216HW,2013-04-21 17:07:00,
2013-04-21 11:12:00,25.9,16.4,29.87,NNE,23,0.0,1.8,67,0.00,,,0.08,WUHU216HW,2013-04-21 17:12:00,
2013-04-21 11:17:00,26.3,17.8,29.87,NNE,23,0.2,1.8,70,0.00,,,0.08,WUHU216HW,2013-04-21 17:17:00,
2013-04-21 11:22:00,26.6,17.8,29.87,NNE,23,0.2,2.9,69,0.00,,,0.08,WUHU216HW,2013-04-21 17:22:00,
2013-04-21 11:27:00,26.6,18.8,29.87,NNE,23,0.4,2.9,72,0.00,,,0.08,WUHU216HW,2013-04-21 17:27:00,
2013-04-21 11:32:00,26.6,17.8,29.87,NNE,23,1.1,1.8,69,0.00,,,0.08,WUHU216HW,2013-04-21 17:32:00,
2013-04-21 11:37:00,26.6,18.8,29.87,NNE,23,1.8,1.8,72,0.00,,,0.08,WUHU216HW,2013-04-21 17:37:00,
2013-04-21 11:42:00,26.8,18.4,29.87,NNE,23,0.2,1.8,70,0.00,,,0.08,WUHU216HW,2013-04-21 17:42:00,
2013-04-21 11:47:00,27.2,18.7,29.87,NNE,23,1.6,3.4,70,0.00,,,0.08,WUHU216HW,2013-04-21 17:47:00,
2013-04-21 11:52:00,27.4,19.2,29.87,NNE,23,1.6,3.4,71,0.00,,,0.08,WUHU216HW,2013-04-21 17:52:00,
2013-04-21 11:57:00,27.0,19.2,29.87,NNE,23,0.9,2.0,72,0.00,,,0.08,WUHU216HW,2013-04-21 17:57:00,
2013-04-21 12:02:00,27.2,18.7,29.88,NNE,23,0.4,2.0,70,0.00,,,0.08,WUHU216HW,2013-04-21 18:02:00,
2013-04-21 12:07:00,27.5,19.7,29.88,NNE,23,0.4,1.8,72,0.00,,,0.08,WUHU216HW,2013-04-21 18:07:00,
2013-04-21 12:12:00,27.5,19.4,29.88,NNE,23,1.6,1.6,71,0.00,,,0.08,WUHU216HW,2013-04-21 18:12:00,
2013-04-21 12:17:00,27.0,18.8,29.88,NNE,23,0.4,2.9,71,0.00,,,0.08,WUHU216HW,2013-04-21 18:17:00,
2013-04-21 12:22:00,27.2,18.7,29.88,NNE,23,0.4,2.9,70,0.00,,,0.08,WUHU216HW,2013-04-21 18:22:00,
2013-04-21 12:27:00,27.7,18.5,29.88,NNE,23,0.7,1.3,68,0.00,,,0.08,WUHU216HW,2013-04-21 18:27:00,
2013-04-21 12:32:00,28.4,20.0,29.88,NNE,23,0.2,0.7,70,0.00,,,0.08,WUHU216HW,2013-04-21 18:32:00,
2013-04-21 12:37:00,28.3,20.7,29.88,NNE,23,1.1,1.8,73,0.00,,,0.08,WUHU216HW,2013-04-21 18:37:00,
2013-04-21 12:42:00,27.7,19.5,29.88,NNE,23,0.2,1.8,71,0.00,,,0.08,WUHU216HW,2013-04-21 18:42:00,
2013-04-21 12:47:00,27.4,19.2,29.87,NNE,23,0.9,1.8,71,0.00,,,0.08,WUHU216HW,2013-04-21 18:47:00,
2013-04-21 12:52:00,27.5,19.1,29.87,NNE,23,0.7,2.7,70,0.00,,,0.08,WUHU216HW,2013-04-21 18:52:00,
2013-04-21 12:57:00,27.7,19.3,29.88,NNE,23,1.8,2.7,70,0.00,,,0.08,WUHU216HW,2013-04-21 18:57:00,
2013-04-21 13:02:00,27.7,19.5,29.87,NNE,23,0.9,2.5,71,0.00,,,0.08,WUHU216HW,2013-04-21 19:02:00,
2013-04-21 13:07:00,27.7,19.5,29.87,NNE,23,0.7,2.5,71,0.00,,,0.08,WUHU216HW,2013-04-21 19:07:00,
2013-04-21 13:12:00,27.5,19.7,29.87,NNE,23,0.2,1.8,72,0.00,,,0.08,WUHU216HW,2013-04-21 19:12:00,
2013-04-21 13:17:00,27.4,19.5,29.87,NNE,23,0.4,1.8,72,0.00,,,0.08,WUHU216HW,2013-04-21 19:17:00,
2013-04-21 13:22:00,27.2,19.4,29.87,NNE,23,1.1,1.8,72,0.00,,,0.08,WUHU216HW,2013-04-21 19:22:00,
2013-04-21 13:27:00,27.0,18.5,29.87,NNE,23,2.2,2.2,70,0.00,,,0.08,WUHU216HW,2013-04-21 19:27:00,
2013-04-21 13:32:00,26.8,18.6,29.87,NNE,23,0.9,2.5,71,0.00,,,0.08,WUHU216HW,2013-04-21 19:32:00,
2013-04-21 13:37:00,26.6,18.8,29.88,NNE,23,1.8,2.5,72,0.00,,,0.08,WUHU216HW,2013-04-21 19:37:00,
2013-04-21 13:42:00,26.6,17.8,29.88,NNE,23,0.2,1.8,69,0.00,,,0.08,WUHU216HW,2013-04-21 19:42:00,
2013-04-21 13:47:00,26.6,18.2,29.88,NNE,23,0.4,1.8,70,0.00,,,0.08,WUHU216HW,2013-04-21 19:47:00,
2013-04-21 13:52:00,26.8,18.0,29.88,NNE,23,0.9,2.5,69,0.00,,,0.08,WUHU216HW,2013-04-21 19:52:00,
2013-04-21 13:57:00,27.0,18.8,29.88,NNE,23,1.1,2.5,71,0.00,,,0.08,WUHU216HW,2013-04-21 19:57:00,
2013-04-21 14:02:00,26.8,18.4,29.88,NNE,23,0.0,2.5,70,0.00,,,0.08,WUHU216HW,2013-04-21 20:02:00,
2013-04-21 14:07:00,26.8,18.4,29.88,NNE,23,0.9,2.0,70,0.00,,,0.08,WUHU216HW,2013-04-21 20:07:00,
2013-04-21 14:12:00,27.0,18.5,29.87,NNE,23,1.1,1.8,70,0.00,,,0.08,WUHU216HW,2013-04-21 20:12:00,
2013-04-21 14:17:00,27.2,18.7,29.88,NNE,23,0.2,2.0,70,0.00,,,0.08,WUHU216HW,2013-04-21 20:17:00,
2013-04-21 14:22:00,27.5,19.1,29.88,NNE,23,1.8,2.5,70,0.00,,,0.08,WUHU216HW,2013-04-21 20:22:00,
2013-04-21 14:27:00,27.5,19.7,29.88,NNE,23,1.1,2.5,72,0.00,,,0.08,WUHU216HW,2013-04-21 20:27:00,
2013-04-21 14:32:00,27.2,19.0,29.88,NNE,23,1.8,1.8,71,0.00,,,0.08,WUHU216HW,2013-04-21 20:32:00,
2013-04-21 14:37:00,27.2,19.4,29.88,NNE,23,0.0,1.8,72,0.00,,,0.08,WUHU216HW,2013-04-21 20:37:00,
2013-04-21 14:42:00,27.4,19.2,29.88,NNE,23,1.8,1.8,71,0.00,,,0.08,WUHU216HW,2013-04-21 20:42:00,
2013-04-21 14:47:00,27.7,19.5,29.88,NNE,23,1.8,1.8,71,0.00,,,0.08,WUHU216HW,2013-04-21 20:47:00,
2013-04-21 14:52:00,27.9,19.7,29.88,NNE,23,1.1,1.8,71,0.00,,,0.08,WUHU216HW,2013-04-21 20:52:00,
2013-04-21 14:57:00,27.9,20.1,29.88,NNE,23,0.4,1.1,72,0.00,,,0.08,WUHU216HW,2013-04-21 20:57:00,
2013-04-21 15:02:00,28.1,20.5,29.89,NNE,23,0.9,0.9,73,0.00,,,0.08,WUHU216HW,2013-04-21 21:02:00,
2013-04-21 15:07:00,28.1,20.5,29.88,NNE,23,0.2,1.6,73,0.00,,,0.08,WUHU216HW,2013-04-21 21:07:00,
2013-04-21 15:12:00,28.1,20.5,29.88,NNE,23,0.4,1.6,73,0.00,,,0.08,WUHU216HW,2013-04-21 21:12:00,
2013-04-21 15:17:00,28.3,20.4,29.88,NNE,23,0.2,1.8,72,0.00,,,0.08,WUHU216HW,2013-04-21 21:17:00,
2013-04-21 15:22:00,28.1,20.5,29.88,NNE,23,0.0,1.8,73,0.00,,,0.08,WUHU216HW,2013-04-21 21:22:00,
2013-04-21 15:27:00,28.1,20.5,29.89,NNE,23,0.0,1.8,73,0.00,,,0.08,WUHU216HW,2013-04-21 21:27:00,
2013-04-21 15:32:00,28.1,20.5,29.89,NNE,23,0.9,0.9,73,0.00,,,0.08,WUHU216HW,2013-04-21 21:32:00,
2013-04-21 15:37:00,27.9,20.3,29.89,NNE,23,0.9,1.1,73,0.00,,,0.08,WUHU216HW,2013-04-21 21:37:00,
2013-04-21 15:42:00,27.7,20.2,29.88,NNE,23,0.4,1.8,73,0.00,,,0.08,WUHU216HW,2013-04-21 21:42:00,
2013-04-21 15:47:00,27.7,20.2,29.89,NNE,23,0.4,1.8,73,0.00,,,0.08,WUHU216HW,2013-04-21 21:47:00,
2013-04-21 15:52:00,27.7,20.2,29.89,NNE,23,1.8,1.8,73,0.00,,,0.08,WUHU216HW,2013-04-21 21:52:00,
2013-04-21 15:57:00,28.1,20.5,29.89,NNE,23,0.4,1.8,73,0.00,,,0.08,WUHU216HW,2013-04-21 21:57:00,
2013-04-21 16:02:00,28.1,20.5,29.89,NNE,23,0.4,1.3,73,0.00,,,0.08,WUHU216HW,2013-04-21 22:02:00,
2013-04-21 16:07:00,28.1,20.5,29.89,NNE,23,0.2,1.8,73,0.00,,,0.08,WUHU216HW,2013-04-21 22:07:00,
2013-04-21 16:12:00,27.7,19.9,29.88,NNE,23,1.6,2.9,72,0.00,,,0.08,WUHU216HW,2013-04-21 22:12:00,
2013-04-21 16:17:00,27.5,20.0,29.88,NNE,23,2.2,2.9,73,0.00,,,0.08,WUHU216HW,2013-04-21 22:17:00,
2013-04-21 16:22:00,27.7,20.2,29.89,NNE,23,1.3,3.4,73,0.00,,,0.08,WUHU216HW,2013-04-21 22:22:00,
2013-04-21 16:27:00,27.7,20.2,29.89,NNE,23,1.3,3.8,73,0.00,,,0.08,WUHU216HW,2013-04-21 22:27:00,
2013-04-21 16:32:00,27.4,19.5,29.89,NNE,23,0.4,3.8,72,0.00,,,0.08,WUHU216HW,2013-04-21 22:32:00,
2013-04-21 16:37:00,27.5,20.0,29.89,NNE,23,0.9,3.6,73,0.00,,,0.08,WUHU216HW,2013-04-21 22:37:00,
2013-04-21 16:42:00,27.4,19.5,29.89,NNE,23,0.4,3.4,72,0.00,,,0.08,WUHU216HW,2013-04-21 22:42:00,
2013-04-21 16:47:00,27.2,19.4,29.89,NNE,23,0.7,3.4,72,0.00,,,0.08,WUHU216HW,2013-04-21 22:47:00,
2013-04-21 16:52:00,27.2,19.4,29.89,NNE,23,1.3,2.0,72,0.00,,,0.08,WUHU216HW,2013-04-21 22:52:00,
2013-04-21 16:57:00,27.0,19.2,29.89,NNE,23,0.2,3.6,72,0.00,,,0.08,WUHU216HW,2013-04-21 22:57:00,
2013-04-21 17:02:00,27.2,19.4,29.89,NNE,23,1.6,3.6,72,0.00,,,0.08,WUHU216HW,2013-04-21 23:02:00,
2013-04-21 17:07:00,27.4,19.5,29.89,NNE,23,1.1,1.6,72,0.00,,,0.08,WUHU216HW,2013-04-21 23:07:00,
2013-04-21 17:12:00,27.4,19.5,29.89,NNE,23,1.1,2.9,72,0.00,,,0.08,WUHU216HW,2013-04-21 23:12:00,
2013-04-21 17:17:00,27.2,19.4,29.89,NNE,23,0.0,2.9,72,0.00,,,0.08,WUHU216HW,2013-04-21 23:17:00,
2013-04-21 17:22:00,27.4,19.5,29.90,NNE,23,0.0,1.8,72,0.00,,,0.08,WUHU216HW,2013-04-21 23:22:00,
2013-04-21 17:27:00,27.5,20.0,29.90,NNE,23,0.2,1.6,73,0.00,,,0.08,WUHU216HW,2013-04-21 23:27:00,
2013-04-21 17:32:00,27.4,19.5,29.90,NNE,23,0.0,3.4,72,0.00,,,0.08,WUHU216HW,2013-04-21 23:32:00,
2013-04-21 17:37:00,27.5,20.0,29.90,NNE,23,0.0,3.4,73,0.00,,,0.08,WUHU216HW,2013-04-21 23:37:00,
2013-04-21 17:42:00,27.7,20.2,29.90,NNE,23,1.3,2.0,73,0.00,,,0.08,WUHU216HW,2013-04-21 23:42:00,
2013-04-21 17:47:00,27.7,19.9,29.90,NNE,23,0.2,2.0,72,0.00,,,0.08,WUHU216HW,2013-04-21 23:47:00,
2013-04-21 17:52:00,27.9,20.1,29.90,NNE,23,0.4,1.1,72,0.00,,,0.08,WUHU216HW,2013-04-21 23:52:00,
2013-04-21 17:57:00,27.9,20.1,29.90,NNE,23,0.0,1.1,72,0.00,,,0.08,WUHU216HW,2013-04-21 23:57:00,
2013-04-21 18:02:00,28.1,20.3,29.90,NNE,23,1.1,2.5,72,0.00,,,0.08,WUHU216HW,2013-04-22 00:02:00,
2013-04-21 18:07:00,27.5,19.7,29.90,NNE,23,0.2,2.5,72,0.00,,,0.08,WUHU216HW,2013-04-22 00:07:00,
2013-04-21 18:12:00,27.4,19.5,29.90,NNE,23,0.4,2.5,72,0.00,,,0.08,WUHU216HW,2013-04-22 00:12:00,
2013-04-21 18:17:00,27.2,19.4,29.90,NNE,23,1.8,1.8,72,0.00,,,0.08,WUHU216HW,2013-04-22 00:17:00,
2013-04-21 18:22:00,27.2,19.4,29.90,NNE,23,0.2,1.8,72,0.00,,,0.08,WUHU216HW,2013-04-22 00:22:00,
2013-04-21 18:27:00,27.0,19.2,29.90,NNE,23,1.6,1.8,72,0.00,,,0.08,WUHU216HW,2013-04-22 00:27:00,
2013-04-21 18:32:00,27.0,19.2,29.90,NNE,23,0.9,1.8,72,0.00,,,0.08,WUHU216HW,2013-04-22 00:32:00,
2013-04-21 18:37:00,27.0,19.2,29.90,NNE,23,1.1,3.1,72,0.00,,,0.08,WUHU216HW,2013-04-22 00:37:00,
2013-04-21 18:42:00,26.8,18.6,29.91,NNE,23,1.3,3.1,71,0.00,,,0.08,WUHU216HW,2013-04-22 00:42:00,
2013-04-21 18:47:00,26.5,18.6,29.91,NNE,23,0.4,2.5,72,0.00,,,0.08,WUHU216HW,2013-04-22 00:47:00,
2013-04-21 18:52:00,26.3,18.5,29.91,NNE,23,2.0,2.0,72,0.00,,,0.08,WUHU216HW,2013-04-22 00:52:00,
2013-04-21 18:57:00,26.3,18.5,29.91,NNE,23,0.4,2.2,72,0.00,,,0.08,WUHU216HW,2013-04-22 00:57:00,
2013-04-21 19:02:00,26.3,18.5,29.91,NNE,23,1.1,2.2,72,0.00,,,0.08,WUHU216HW,2013-04-22 01:02:00,
2013-04-21 19:07:00,26.3,18.5,29.92,NNE,23,3.8,3.8,72,0.00,,,0.08,WUHU216HW,2013-04-22 01:07:00,
2013-04-21 19:12:00,26.1,18.3,29.91,NNE,23,1.6,3.8,72,0.00,,,0.08,WUHU216HW,2013-04-22 01:12:00,
2013-04-21 19:17:00,25.7,17.9,29.92,NNE,23,2.2,2.2,72,0.00,,,0.08,WUHU216HW,2013-04-22 01:17:00,
2013-04-21 19:22:00,25.6,17.7,29.92,NNE,23,0.4,2.2,72,0.00,,,0.08,WUHU216HW,2013-04-22 01:22:00,
2013-04-21 19:27:00,25.6,17.7,29.92,NNE,23,0.4,1.8,72,0.00,,,0.08,WUHU216HW,2013-04-22 01:27:00,
2013-04-21 19:32:00,25.2,17.4,29.92,NNE,23,1.1,1.8,72,0.00,,,0.08,WUHU216HW,2013-04-22 01:32:00,
2013-04-21 19:37:00,25.0,17.2,29.93,NNE,23,0.0,1.6,72,0.00,,,0.08,WUHU216HW,2013-04-22 01:37:00,
2013-04-21 19:42:00,24.8,17.4,29.93,NNE,23,0.0,1.6,73,0.00,,,0.08,WUHU216HW,2013-04-22 01:42:00,
2013-04-21 19:47:00,24.7,16.6,29.93,NNE,23,0.9,1.6,71,0.00,,,0.08,WUHU216HW,2013-04-22 01:47:00,
2013-04-21 19:52:00,24.1,15.4,29.94,NNE,23,0.0,1.1,69,0.00,,,0.08,WUHU216HW,2013-04-22 01:52:00,
2013-04-21 19:57:00,23.8,15.0,29.94,NNE,23,0.7,0.7,69,0.00,,,0.08,WUHU216HW,2013-04-22 01:57:00,
2013-04-21 20:02:00,23.8,16.0,29.94,NNE,23,0.7,1.1,72,0.00,,,0.08,WUHU216HW,2013-04-22 02:02:00,
2013-04-21 20:07:00,23.8,15.0,29.94,NNE,23,0.4,1.6,69,0.00,,,0.08,WUHU216HW,2013-04-22 02:07:00,
2013-04-21 20:12:00,23.4,14.8,29.94,NNE,23,0.7,1.6,69,0.00,,,0.08,WUHU216HW,2013-04-22 02:12:00,
2013-04-21 20:17:00,23.4,15.4,29.95,NNE,23,1.1,1.1,71,0.00,,,0.08,WUHU216HW,2013-04-22 02:17:00,
2013-04-21 20:22:00,23.4,15.7,29.95,NNE,23,0.0,1.8,72,0.00,,,0.08,WUHU216HW,2013-04-22 02:22:00,
2013-04-21 20:27:00,23.0,14.8,29.95,NNE,23,0.0,1.8,70,0.00,,,0.08,WUHU216HW,2013-04-22 02:27:00,
2013-04-21 20:32:00,22.7,14.4,29.95,NNE,23,0.4,1.1,70,0.00,,,0.08,WUHU216HW,2013-04-22 02:32:00,
2013-04-21 20:37:00,22.5,15.5,29.95,NNE,23,1.1,1.1,74,0.00,,,0.08,WUHU216HW,2013-04-22 02:37:00,
2013-04-21 20:42:00,22.5,14.2,29.95,NNE,23,0.0,1.1,70,0.00,,,0.08,WUHU216HW,2013-04-22 02:42:00,
2013-04-21 20:47:00,22.3,14.0,29.96,NNE,23,0.0,0.7,70,0.00,,,0.08,WUHU216HW,2013-04-22 02:47:00,
2013-04-21 20:52:00,22.0,14.3,29.96,NNE,23,1.8,2.2,72,0.00,,,0.08,WUHU216HW,2013-04-22 02:52:00,
2013-04-21 20:57:00,22.0,14.3,29.96,NNE,23,1.1,2.2,72,0.00,,,0.08,WUHU216HW,2013-04-22 02:57:00,
2013-04-21 21:02:00,21.8,13.8,29.96,NNE,23,0.0,1.6,71,0.00,,,0.08,WUHU216HW,2013-04-22 03:02:00,
2013-04-21 21:07:00,21.6,14.2,29.97,NNE,23,1.8,1.8,73,0.00,,,0.08,WUHU216HW,2013-04-22 03:07:00,
2013-04-21 21:12:00,21.2,13.6,29.97,NNE,23,1.1,1.8,72,0.00,,,0.08,WUHU216HW,2013-04-22 03:12:00,
2013-04-21 21:17:00,21.1,13.1,29.97,NNE,23,1.1,1.8,71,0.00,,,0.08,WUHU216HW,2013-04-22 03:17:00,
2013-04-21 21:22:00,20.9,12.2,29.97,NNE,23,0.4,1.1,69,0.00,,,0.08,WUHU216HW,2013-04-22 03:22:00,
2013-04-21 21:27:00,20.5,12.9,29.98,NNE,23,0.0,1.1,72,0.00,,,0.08,WUHU216HW,2013-04-22 03:27:00,
2013-04-21 21:32:00,20.3,12.3,29.98,NNE,23,0.0,1.1,71,0.00,,,0.08,WUHU216HW,2013-04-22 03:32:00,
2013-04-21 21:37:00,20.0,11.3,29.98,NNE,23,0.4,0.4,69,0.00,,,0.08,WUHU216HW,2013-04-22 03:37:00,
2013-04-21 21:42:00,19.8,11.2,29.98,NNE,23,0.4,1.1,69,0.00,,,0.08,WUHU216HW,2013-04-22 03:42:00,
2013-04-21 21:47:00,19.6,11.0,29.98,NNE,23,0.9,1.1,69,0.00,,,0.08,WUHU216HW,2013-04-22 03:47:00,
2013-04-21 21:52:00,19.4,10.8,29.98,NNE,23,0.0,0.9,69,0.00,,,0.08,WUHU216HW,2013-04-22 03:52:00,
2013-04-21 21:57:00,19.4,10.8,29.98,NNE,23,0.0,0.7,69,0.00,,,0.08,WUHU216HW,2013-04-22 03:57:00,
2013-04-21 22:01:00,19.4,10.8,29.98,NNE,23,0.0,0.4,69,0.00,,,0.08,WUHU216HW,2013-04-22 04:01:00,
2013-04-21 22:06:00,19.1,10.2,29.99,NNE,23,0.0,0.4,68,0.00,,,0.08,WUHU216HW,2013-04-22 04:06:00,
2013-04-21 22:11:00,19.1,10.5,29.99,NNE,23,0.0,1.8,69,0.00,,,0.08,WUHU216HW,2013-04-22 04:11:00,
2013-04-21 22:16:00,19.1,10.2,29.99,NNE,23,0.0,1.8,68,0.00,,,0.08,WUHU216HW,2013-04-22 04:16:00,
2013-04-21 22:21:00,19.1,10.2,30.00,NNE,23,0.4,0.7,68,0.00,,,0.08,WUHU216HW,2013-04-22 04:21:00,
2013-04-21 22:26:00,18.9,11.0,30.00,NNE,23,0.4,0.7,71,0.00,,,0.08,WUHU216HW,2013-04-22 04:26:00,
2013-04-21 22:31:00,18.7,10.8,30.00,NNE,23,0.0,0.4,71,0.00,,,0.08,WUHU216HW,2013-04-22 04:31:00,
2013-04-21 22:36:00,18.5,10.0,30.00,NNE,23,0.4,0.4,69,0.00,,,0.08,WUHU216HW,2013-04-22 04:36:00,
2013-04-21 22:41:00,18.5,11.0,30.00,NNE,23,0.2,0.4,72,0.00,,,0.08,WUHU216HW,2013-04-22 04:41:00,
2013-04-21 22:46:00,18.5,10.6,30.00,NNE,23,0.4,0.9,71,0.00,,,0.08,WUHU216HW,2013-04-22 04:46:00,
2013-04-21 22:51:00,18.5,10.6,30.00,NNE,23,0.0,0.9,71,0.00,,,0.08,WUHU216HW,2013-04-22 04:51:00,
2013-04-21 22:56:00,18.4,10.4,30.00,NNE,23,0.4,0.9,71,0.00,,,0.08,WUHU216HW,2013-04-22 04:56:00,
2013-04-21 23:01:00,18.4,10.2,30.00,NNE,23,0.9,0.9,70,0.00,,,0.08,WUHU216HW,2013-04-22 05:01:00,
2013-04-21 23:06:00,18.2,10.0,30.00,NNE,23,0.0,0.9,70,0.00,,,0.08,WUHU216HW,2013-04-22 05:06:00,
2013-04-21 23:11:00,18.2,10.4,30.00,NNE,23,0.0,0.4,71,0.00,,,0.08,WUHU216HW,2013-04-22 05:11:00,
2013-04-21 23:16:00,18.0,10.2,30.00,NNE,23,1.6,1.6,71,0.00,,,0.08,WUHU216HW,2013-04-22 05:16:00,
2013-04-21 23:21:00,18.4,10.4,30.00,NNE,23,0.4,1.6,71,0.00,,,0.08,WUHU216HW,2013-04-22 05:21:00,
2013-04-21 23:26:00,18.4,10.4,30.00,NNE,23,0.0,0.7,71,0.00,,,0.08,WUHU216HW,2013-04-22 05:26:00,
2013-04-21 23:31:00,18.2,10.4,30.00,NNE,23,0.2,0.4,71,0.00,,,0.08,WUHU216HW,2013-04-22 05:31:00,
2013-04-21 23:36:00,18.2,10.6,30.00,NNE,23,0.2,0.9,72,0.00,,,0.08,WUHU216HW,2013-04-22 05:36:00,
2013-04-21 23:41:00,18.0,11.1,30.00,NNE,23,0.4,0.9,74,0.00,,,0.08,WUHU216HW,2013-04-22 05:41:00,
2013-04-21 23:46:00,18.0,10.4,30.00,NNE,23,0.4,1.1,72,0.00,,,0.08,WUHU216HW,2013-04-22 05:46:00,
2013-04-21 23:51:00,17.8,10.5,30.01,NNE,23,0.0,1.1,73,0.00,,,0.08,WUHU216HW,2013-04-22 05:51:00,
2013-04-21 23:56:00,17.6,10.5,30.01,NNE,23,0.2,1.8,73,0.00,,,0.08,WUHU216HW,2013-04-22 05:56:00,